Regional Weather Roundup
Issued by NWS Green Bay, WI

Home | Current Version | Previous Version | Text Only | Print | Product List | Glossary On
Versions: 1 2 3 4 5 6 7 8 9 10 11 12 13 14 15 16 17 18 19 20 21 22 23 24 25 26 27 28 29 30 31 32 33 34 35 36 37 38 39 40 41 42 43 44 45 46 47 48 49 50
000
ASUS43 KGRB 301559
RWRGRB

NORTH-CENTRAL AND NORTHEAST WISCONSIN REGIONAL WEATHER ROUNDUP
NATIONAL WEATHER SERVICE GREEN BAY WI
1100 AM CDT WED JUL 30 2014

WIZ005-009-010>012-018-019-301700-
NORTH CENTRAL WISCONSIN

CITY           SKY/WX    TMP DP  RH WIND       PRES   REMARKS
IRONWOOD       NOT AVBL
MANITOWISH WTR NOT AVBL
ARBOR VITAE    NOT AVBL
EAGLE RIVER    NOT AVBL
LAND O LAKES   NOT AVBL
RHINELANDER      N/A     65  52  62 W8        30.08S
PHILLIPS       NOT AVBL
ANTIGO         NOT AVBL
TOMAHAWK       NOT AVBL
MERRILL        NOT AVBL
$$

WIZ013-073-301700-
NORTHEAST WISCONSIN

CITY           SKY/WX    TMP DP  RH WIND       PRES   REMARKS
IRON MOUNTAIN    N/A     68  46  45 N10       30.04S
MARINETTE        N/A     64  52  63 N6        30.03S
$$

WIZ017-030-035>037-045-301700-
CENTRAL WISCONSIN

CITY           SKY/WX    TMP DP  RH WIND       PRES   REMARKS
MEDFORD        NOT AVBL
WAUSAU           N/A     65  53  65 W6        30.06S
MOSINEE        SUNNY     66  52  59 NW3       30.09S
MARSHFIELD       N/A     67  54  63 NW6       30.08S
WISC RAPIDS      N/A     70  53  54 VRB5      30.08S
STEVENS POINT  NOT AVBL
WAUPACA        NOT AVBL
SHAWANO        NOT AVBL
CLINTONVILLE   NOT AVBL
$$

WIZ038-039-048-051-301700-
FOX VALLEY

CITY           SKY/WX    TMP DP  RH WIND       PRES   REMARKS
NWS GREEN BAY    N/A     69  54  58 VRB5      30.05S
APPLETON       PTSUNNY   66  54  63 N8        30.06S
OSHKOSH        PTSUNNY   67  56  67 CALM      30.05S
FOND DU LAC      N/A     68  56  65 NE8       30.06S
$$

WIZ022-050-052-301700-
EAST CENTRAL WISCONSIN

CITY           SKY/WX    TMP DP  RH WIND       PRES   REMARKS
STURGEON BAY     N/A     63  54  72 NW7       30.05S
MANITOWOC      NOT AVBL
SHEBOYGAN        N/A     66  55  67 N3        30.05S
$$

LMZ563-521-522-541>543-301700-
LAKESHORE

STATION/POSITION TIME  TEMP    WIND        PRES    VSBY  WAVE
                       AIR SEA DIR/SP/G                  HT/PER
                 (UTC) (F)     (DEG/KT/KT) (MB)    (MI)  (FT/S)
SHEBOYGAN LKSHOR 1500   58      10/  9/  9 1017.8R
KEWAUNEE LKSHORE 1500   59     120/  3/  4 1017.9R
NORTHPORT PIER   1500   59     310/  7/  8 1016.9S
N MID LAKE BUOY  1500   52 52   30/  4/  8 1016.7R         1/ 3
S GREEN BAY BUOY 1500   61 66   10/  4     1018.3F
SISTER BAY LKSHO 1500   62     360/  9/ 11   N/A
CHAMBERS ISLAND  1500   64     360/  3/  4 1017.6S
MENOMINEE LKSHOR 1500   62      90/  4/  5 1017.8F
$$



USA.gov is the U.S. government's official web portal to all federal, state and local government web resources and services.